Regional Weather Roundup
Issued by NWS

Home | Current Version | Previous Version | Text Only | Print | Product List | Glossary On
Versions: 1 2 3 4 5 6 7 8 9 10 11 12 13 14 15 16 17 18 19 20 21 22 23 24 25 26 27 28 29 30 31 32 33 34 35 36 37 38 39 40 41 42 43 44 45 46 47 48 49 50
000
ASUS43 KBIS 271331
RWRND
NORTH DAKOTA REGIONAL WEATHER ROUNDUP
NATIONAL WEATHER SERVICE EASTERN NORTH DAKOTA/GRAND FORKS ND
800 AM CDT SUN MAY 27 2018

  NOTE: "FAIR" INDICATES FEW OR NO CLOUDS BELOW 12,000 FEET WITH NO
  SIGNIFICANT WEATHER AND/OR OBSTRUCTIONS TO VISIBILITY.

NDZ001>003-009>011-017-271400-
...NORTHWEST NORTH DAKOTA...

CITY           SKY/WX    TMP DP  RH WIND       PRES   REMARKS
WILLISTON      FAIR      64  59  83 W7        29.87R
MINOT          FAIR      63  60  90 N13       29.82R
MINOT AFB      FAIR      63  62  98 NE10      29.82R
$$

NDZ018>021-031>035-040>046-271400-
...SOUTHWEST NORTH DAKOTA...

CITY           SKY/WX    TMP DP  RH WIND       PRES   REMARKS
BISMARCK       FAIR      68  58  70 E18G31    29.76F
DICKINSON      FAIR      61  57  87 E6        29.83R
GARRISON         N/A     62  59  90 NE7       29.78R
HETTINGER      FAIR      62  55  77 NE17      29.83R
$$

NDZ004>008-012>016-024-026-027-054-271400-
...NORTHEAST NORTH DAKOTA...

CITY           SKY/WX    TMP DP  RH WIND       PRES   REMARKS
GRAND FORKS    RAIN      65  63  93 NW18      29.93R FOG
GRAND FORKS AF LGT RAIN  66  64  95 NW20G30   29.91R
DEVILS LAKE    LGT RAIN  62  60  93 NE20G26   29.74F
$$

NDZ022-023-025-028>030-036>039-047>053-271400-
...SOUTHEAST NORTH DAKOTA...

CITY           SKY/WX    TMP DP  RH WIND       PRES   REMARKS
JAMESTOWN      LGT RAIN  64  61  90 NE9       29.83F
FARGO          TSTM      67  59  75 NW28G44   29.91R
WAHPETON       FAIR      63  55  77 SE6       29.83F
$$




USA.gov is the U.S. government's official web portal to all federal, state and local government web resources and services.